1310256034904,17.0134
1310256094904,16.9744
1310256154904,17.0144
1310256214904,17.0539
1310256274904,17.0532
1310256334904,17.0179
1310256394904,17.0157
1310256454904,16.9883
1310256514904,16.9559
1310256574904,16.9683
1310256634904,16.9566
1310256694904,16.9650
1310256754904,16.9494
1310256814904,17.0760
1310256874904,16.9579
1310256934904,16.9607
1310256994904,17.0069
1310257054904,17.0151
1310257114904,16.9789
1310257174904,16.9395
1310257234904,16.9261
1310257294904,16.9717
1310257354904,16.9556
1310257414904,16.9420
1310257474904,16.9679
1310257534904,16.9602
1310257594904,16.9944
1310257654904,16.9675
1310257714904,16.9235
1310257774904,17.0059
1310257834904,16.9354
1310257894904,16.9625
1310257954904,16.9755
1310258014904,16.9501
1310258074904,16.9308
1310258134904,16.9536
1310258194904,16.9677
1310258254904,16.9418
1310258314904,16.9548
1310258374904,16.9359
1310258434904,16.9583
1310258494904,16.9719
1310258554904,16.9757
1310258614904,16.9737
1310258674904,16.9284
1310258734904,16.8981
1310258794904,16.9659
1310258854904,16.9111
1310258914904,16.9217
1310258974904,16.9309
1310259034904,16.9164
1310259094904,16.9297
1310259154904,16.9418
1310259214904,16.9349
1310259274904,16.9288
1310259334904,16.9102
1310259394904,16.8904
1310259454904,16.8936
1310259514904,16.8830
1310259574904,16.9079
1310259634915,16.8901
1310259694915,16.8795
1310259754915,16.8802
1310259814915,16.9196
1310259874915,16.9706
1310259934915,16.9542
1310259994915,16.9447
1310260054915,16.9485
1310260114915,16.9332
1310260174915,16.9556
1310260234915,16.9914
1310260294915,16.9039
1310260354915,16.9254
1310260414915,16.9090
1310260474915,16.9367
1310260534915,16.8659
1310260594915,16.9472
1310260654915,16.8557
1310260714915,16.9227
1310260774915,16.9353
1310260834915,16.9200
1310260894915,16.9311
1310260954915,16.9268
1310261014915,16.9261
1310261074915,16.9021
1310261134915,16.9135
1310261194915,16.9666
1310261254915,16.8951
1310261314915,16.9376
1310261374915,16.9528
1310261434915,16.9518
1310261494915,16.9231
1310261554915,16.9211
1310261614915,16.9390
1310261674915,16.9092
1310261734915,16.9234
1310261794915,16.9496
1310261854915,16.9535
1310261914915,16.9635
1310261974915,16.8619
1310262034915,16.9085
1310262094915,16.8868
1310262154915,16.8585
1310262214915,16.8759
1310262274915,16.9176
1310262334915,16.8845
1310262394915,16.8434
1310262454915,16.8880
1310262514915,16.8526
1310262574915,16.8940
1310262634915,16.8802
1310262694915,16.8881
1310262754915,16.8970
1310262814915,16.8616
1310262874915,16.9061
1310262934915,16.8599
1310262994915,16.9008
1310263054915,16.8564
1310263114915,16.8570
1310263174915,16.8753
1310263234924,16.8366
1310263294924,16.8609
1310263354924,16.8755
1310263414924,16.9174
1310263474924,16.9056
1310263534924,16.9195
1310263594924,16.9298
1310263654924,16.9200
1310263714924,16.8939
1310263774924,16.9593
1310263834924,16.9750
1310263894924,16.9242
1310263954924,16.9576
1310264014924,16.9718
1310264074924,16.9194
1310264134924,16.9270
1310264194925,16.9087
1310264254925,16.8895
1310264314925,16.8912
1310264374925,16.9195
1310264434924,16.8774
1310264494924,16.9269
1310264554924,16.8883
1310264614924,16.8622
1310264674924,16.9076
1310264734924,16.8959
1310264794924,16.9024
1310264854924,16.9068
1310264914924,16.9335
1310264974924,16.9273
1310265034924,16.8933
1310265094924,16.9092
1310265154924,16.9404
1310265214924,16.9021
1310265274924,16.9395
1310265334924,16.9311
1310265394924,16.9262
1310265454924,16.9432
1310265514924,16.9420
1310265574925,16.8822
1310265634925,16.9205
1310265694925,16.9048
1310265754925,16.9090
1310265814924,16.9453
1310265874924,16.9557
1310265934924,16.9737
1310265994924,16.9398
1310266054924,16.9406
1310266114924,16.9508
1310266174924,16.9525
1310266234924,16.9738
1310266294924,16.9361
1310266354924,16.9038
1310266414924,16.9547
1310266474924,16.9147
1310266534924,16.9475
1310266594924,16.9412
1310266654924,16.8958
1310266714924,16.9363
1310266774924,16.9224
1310266834934,16.9212
1310266894934,16.8596
1310266954934,16.9277
1310267014934,16.9134
1310267074934,16.9369
1310267134934,16.9598
1310267194934,16.8960
1310267254934,16.9210
1310267314934,16.9106
1310267374934,16.9083
1310267434934,16.9210
1310267494934,16.8904
1310267554934,16.9433
1310267614934,16.9686
1310267674934,16.9274
1310267734934,16.8656
1310267794934,16.8824
1310267854934,16.9183
1310267914934,16.8703
1310267974934,16.8442
1310268034934,16.8907
1310268094934,16.8478
1310268154934,16.8834
1310268214934,16.9205
1310268274934,16.9245
1310268334934,16.8609
1310268394934,16.8415
1310268454934,16.9211
1310268514934,16.9095
1310268574934,16.8555
1310268634934,16.9061
1310268694934,16.8920
1310268754934,16.8911
1310268814934,16.8722
1310268874934,16.8946
1310268934934,16.8931
1310268994934,16.8651
1310269054934,16.8582
1310269114934,16.8520
1310269174934,16.9148
1310269234934,16.8769
1310269294934,16.8896
1310269354934,16.8966
1310269414934,16.8932
1310269474934,16.9348
1310269534934,16.9080
1310269594934,16.9317
1310269654934,17.1326
1310269714934,16.8760
1310269774934,16.9089
1310269834934,16.8724
1310269894934,16.8902
1310269954934,16.9112
1310270014934,16.8968
1310270074934,16.9071
1310270134934,16.8862
1310270194934,16.9408
1310270254934,16.9279
1310270314934,16.9169
1310270374934,16.9169
1310270434944,16.9618
1310270494944,16.9087
1310270554944,16.9133
1310270614944,16.9397
1310270674944,16.9333
1310270734944,16.9208
1310270794944,16.9290
1310270854944,16.9520
1310270914944,16.9390
1310270974944,16.9525
1310271034944,16.9334
1310271094944,16.9522
1310271154944,16.9328
1310271214944,16.9406
1310271274944,16.9849
1310271334944,16.9639
1310271394944,16.9320
1310271454944,17.0168
1310271514944,16.9766
1310271574944,17.0218
1310271634944,17.0082
1310271694944,17.0418
1310271754944,16.9770
1310271814944,16.9731
1310271874944,17.0586
1310271934944,16.9622
1310271994944,16.9442
1310272054944,16.9720
1310272114944,16.9497
1310272174944,16.9329
1310272234944,16.9277
1310272294944,16.9468
1310272354944,16.9375
1310272414944,16.9512
1310272474944,16.9198
1310272534944,16.9723
1310272594944,16.9692
1310272654944,16.9290
1310272714944,16.9934
1310272774944,16.9507
1310272834944,16.9760
1310272894944,16.9470
1310272954944,16.9877
1310273014944,16.9795
1310273074944,16.9526
1310273134944,16.9467
1310273194944,16.9729
1310273254944,16.9196
1310273314944,16.9518
1310273374944,17.0121
1310273434944,16.9583
1310273494944,16.9706
1310273554944,17.0081
1310273614944,17.0066
1310273674944,16.9863
1310273734944,16.9546
1310273794944,16.9700
1310273854944,16.9370
1310273914944,16.9253
1310273974944,16.9095
1310274034953,16.9049
1310274094953,16.9616
1310274154953,16.9531
1310274214953,16.9487
1310274274953,16.9537
1310274334953,17.0047
1310274394953,16.9302
1310274454953,16.9577
1310274514953,16.9653
1310274574953,16.9895
1310274634953,16.9518
1310274694953,16.9263
1310274754953,16.9243
1310274814953,16.9437
1310274874953,16.9426
1310274934953,16.9283
1310274994953,16.9354
1310275054953,16.9111
1310275114953,16.9095
1310275174953,16.8688
1310275234953,16.9301
1310275294953,16.9192
1310275354953,16.9545
1310275414953,16.9333
1310275474953,16.9346
1310275534953,16.8994
1310275594953,16.9453
1310275654953,16.9109
1310275714953,16.9202
1310275774953,16.9603
1310275834953,16.9605
1310275894953,16.8777
1310275954953,16.9393
1310276014953,16.9236
1310276074953,16.9382
1310276134953,16.9608
1310276194953,16.9220
1310276254953,16.9220
1310276314953,16.8855
1310276374953,16.9214
1310276434953,16.9238
1310276494953,16.9019
1310276554953,16.9445
1310276614953,16.9722
1310276674953,16.9203
1310276734953,16.8881
1310276794953,16.9223
1310276854953,16.9256
1310276914953,16.9297
1310276974953,16.9046
1310277034953,16.9384
1310277094953,16.9068
1310277154953,16.8970
1310277214953,16.9172
1310277274953,16.8888
1310277334953,16.9151
1310277394953,16.8923
1310277454953,16.9214
1310277514953,16.9450
1310277574953,16.9261
1310277634962,16.9710
1310277694962,16.9117
1310277754962,16.9359
1310277814962,16.9512
1310277874962,16.9265
1310277934962,16.9539
1310277994962,16.9278
1310278054962,16.9197
1310278114962,16.9570
1310278174962,16.9790
1310278234962,16.9755
1310278294962,16.9805
1310278354962,16.9796
1310278414962,16.9271
1310278474962,16.9117
1310278534962,16.9235
1310278594962,16.9267
1310278654962,16.9707
1310278714962,16.9465
1310278774962,16.9735
1310278834962,16.9946
1310278894962,17.0368
1310278954962,16.9663
1310279014962,16.9974
1310279074962,16.9388
1310279134962,16.9818
1310279194962,16.9411
1310279254962,16.9447
1310279314962,16.9233
1310279374962,16.9301
1310279434962,16.9697
1310279494962,16.9808
1310279554962,16.9589
1310279614962,16.9505
1310279674962,16.9579
1310279734962,16.9972
1310279794962,16.9339
1310279854962,16.9114
1310279914962,16.9152
1310279974962,16.9407
1310280034962,16.9718
1310280094962,16.9338
1310280154962,16.9022
1310280214962,16.9335
1310280274962,16.9848
1310280334962,16.9850
1310280394962,16.9233
1310280454962,16.9795
1310280514962,16.9337
1310280574962,16.9740
1310280634962,16.9551
1310280694962,16.9524
1310280754962,16.9292
1310280814962,16.9348
1310280874962,16.9801
1310280934962,16.9976
1310280994962,16.9419
1310281054962,16.9772
1310281114962,16.9889
1310281174962,16.9961
1310281234972,16.9089
1310281294972,16.9463
1310281354972,16.9390
1310281414972,16.9714
1310281474972,17.0342
1310281534972,16.9649
1310281594972,16.9991
1310281654972,17.0167
1310281714972,16.9765
1310281774972,17.0099
1310281834972,17.0113
1310281894972,16.9971
1310281954972,16.9884
1310282014972,17.0096
1310282074972,17.0237
1310282134972,17.0332
1310282194972,16.9766
1310282254972,16.9961
1310282314972,16.9758
1310282374972,16.9873
1310282434972,16.9447
1310282494972,16.9522
1310282554972,16.8904
1310282614972,16.9431
1310282674972,16.9626
1310282734972,16.9679
1310282794972,16.9093
1310282854972,16.9255
1310282914972,16.9264
1310282974972,16.9179
1310283034972,16.9945
1310283094972,17.0337
1310283154972,17.0102
1310283214972,16.9629
1310283274972,16.9778
1310283334972,16.9502
1310283394972,16.9686
1310283454972,17.0140
1310283514972,16.9185
1310283574972,16.9534
1310283634972,16.9942
1310283694972,16.8843
1310283754972,16.9648
1310283814972,16.9002
1310283874972,16.9606
1310283934972,16.9478
1310283994972,16.9861
1310284054972,17.0157
1310284114972,16.9350
1310284174972,16.9791
1310284234972,16.9636
1310284294972,16.9247
1310284354972,16.9448
1310284414972,16.9863
1310284474972,16.9963
1310284534972,16.9610
1310284594972,16.9603
1310284654972,16.9536
1310284714972,16.9576
1310284774972,16.9528
1310284834981,16.9939
1310284894981,16.9796
1310284954981,16.9394
1310285014981,17.0101
1310285074981,16.9948
1310285134981,16.9971
1310285194981,16.9565
1310285254981,16.9790
1310285314981,16.9358
1310285374981,16.9223
1310285434981,16.9671
1310285494981,16.9479
1310285554981,16.9745
1310285614981,16.9942
1310285674981,16.9538
1310285734981,16.9638
1310285794981,16.9122
1310285854981,16.9827
1310285914981,16.9359
1310285974981,16.9650
1310286034981,17.0025
1310286094981,16.9945
1310286154981,16.9829
1310286214981,16.9860
1310286274981,16.9163
1310286334981,16.9624
1310286394981,16.9493
1310286454981,16.9258
1310286514981,16.9080
1310286574981,16.9288
1310286634981,16.9306
1310286694981,16.8909
1310286754981,16.9369
1310286814981,16.9079
1310286874981,16.9384
1310286934981,16.9561
1310286994981,16.9220
1310287054981,16.9917
1310287114981,16.9846
1310287174981,16.9474
1310287234981,16.9719
1310287294981,16.9262
1310287354981,16.9232
1310287414981,16.9416
1310287474981,16.9200
1310287534981,16.9323
1310287594981,16.9511
1310287654981,16.9739
1310287714981,17.0390
1310287774981,16.9660
1310287834981,17.0172
1310287894981,16.9586
1310287954981,16.9757
1310288014981,16.9513
1310288074981,17.0074
1310288134981,16.9785
1310288194981,16.9984
1310288254981,16.9912
1310288314981,16.9868
1310288374981,17.0158
1310288434990,17.0012
1310288494990,17.0316
1310288554990,17.0232
1310288614990,16.9794
1310288674990,16.9916
1310288734990,16.9730
1310288794990,16.9990
1310288854990,16.9682
1310288914990,17.0220
1310288974990,16.9949
1310289034990,17.0473
1310289094990,16.9628
1310289154990,17.0206
1310289214990,16.9357
1310289274990,16.9156
1310289334990,16.9737
1310289394990,16.9440
1310289454990,16.9773
1310289514990,16.9136
1310289574990,16.9362
1310289634990,16.9552
1310289694990,16.9530
1310289754990,16.9378
1310289814990,16.9345
1310289874990,16.9263
1310289934990,16.9359
1310289994990,16.9056
1310290054990,16.9722
1310290114990,16.9456
1310290174990,16.9859
1310290234990,17.0156
1310290294990,16.9355
1310290354990,16.9346
1310290414990,16.9604
1310290474990,16.9586
1310290534990,16.9732
1310290594990,16.9658
1310290654990,16.9963
1310290714990,16.9717
1310290774990,17.0232
1310290834990,17.0369
1310290894990,16.9457
1310290954990,16.9286
1310291014990,17.0197
1310291074990,17.0299
1310291134990,16.9657
1310291194990,16.9695
1310291254990,17.0139
1310291314990,16.9802
1310291374990,16.9954
1310291434990,17.0001
1310291494990,17.0258
1310291554990,17.0046
1310291614990,16.9593
1310291674990,16.9766
1310291734990,16.9495
1310291794990,16.9995
1310291854990,17.0348
1310291914990,16.9969
1310291974990,16.9931
1310292034999,17.0008
1310292094999,17.0615
1310292154999,17.0501
1310292214999,17.0394
1310292274999,17.0193
1310292334999,16.9945
1310292394999,17.0346
1310292454999,17.0677
1310292514999,17.0294
1310292574999,17.0388
1310292634999,17.1472
1310292694999,17.0915
1310292754999,17.1001
1310292814999,17.0597
1310292874999,17.0696
1310292934999,17.1166
1310292994999,17.0587
1310293054999,17.1308
1310293114999,17.0773
1310293174999,17.1085
1310293234999,17.0791
1310293294999,17.0063
1310293354999,17.3098
1310293414999,17.0784
1310293474999,17.1156
1310293534999,17.0726
1310293594999,17.2102
1310293654999,17.0911
1310293714999,17.0985
1310293774999,17.1149
1310293834999,17.1300
1310293894999,17.0990
1310293954999,17.0757
1310294014999,17.0385
1310294074999,17.0710
1310294134999,17.0628
1310294194999,17.0255
1310294254999,16.9891
1310294314999,17.0028
1310294374999,17.0388
1310294434999,17.0356
1310294494999,17.0197
1310294554999,17.0361
1310294614999,17.0550
1310294674999,17.0378
1310294734999,17.0005
1310294794999,17.0416
1310294854999,17.0665
1310294914999,17.0144
1310294974999,17.0188
1310295034999,17.0396
1310295094999,17.0705
1310295154999,17.0261
1310295214999,17.0263
1310295274999,17.0541
1310295334999,17.0211
1310295394999,17.0628
1310295454999,17.0566
1310295514999,17.0386
1310295574999,17.1434
1310295625009,17.0855
1310295685009,17.0952
1310295745009,17.0727
1310295805009,17.0915
1310295865009,17.0592
1310295925009,17.0184
1310295985009,17.0416
1310296045009,17.0357
1310296105009,17.0223
1310296165009,17.0093
1310296225009,17.0888
1310296285009,17.0669
1310296345009,17.0892
1310296405009,17.0648
1310296465009,17.0270
1310296525009,17.0763
1310296585009,17.0449
1310296645009,17.0694
1310296705009,17.0686
1310296765009,17.0346
1310296825009,17.0747
1310296885009,17.0680
1310296945009,17.0461
1310297005009,17.0613
1310297065009,17.0611
1310297125009,17.0755
1310297185009,17.0676
1310297245009,17.0454
1310297305009,17.0603
1310297365009,17.0470
1310297425009,17.0039
1310297485009,16.9939
1310297545009,16.9911
1310297605009,17.0638
1310297665009,17.0340
1310297725009,17.0168
1310297785009,17.0378
1310297845009,16.9987
1310297905009,17.0367
1310297965009,17.0110
1310298025009,17.0601
1310298085009,17.0182
1310298145009,17.0177
1310298205009,17.0720
1310298265009,17.0543
1310298325009,17.0457
1310298385009,17.0456
1310298445009,17.0609
1310298505009,17.0418
1310298565009,17.0863
1310298625009,17.0535
1310298685009,17.0814
1310298745009,17.0297
1310298805009,17.0341
1310298865009,17.0525
1310298925009,17.0337
1310298985009,17.0944
1310299045009,17.0829
1310299105009,17.0880
1310299165009,17.0622
1310299225018,17.0498
1310299285018,17.0712
1310299345018,17.0657
1310299405018,17.0818
1310299465018,17.0448
1310299525018,17.0331
1310299585018,17.0664
1310299645018,17.1001
1310299705018,17.0442
1310299765018,17.0407
1310299825018,17.0361
1310299885018,17.0806
1310299945018,17.0937
1310300005018,17.0273
1310300065018,17.0203
1310300125018,17.0387
1310300185018,17.0694
1310300245018,17.0616
1310300305018,17.0230
1310300365018,17.0597
1310300425018,17.0353
1310300485018,17.0506
1310300545018,17.0337
1310300605018,17.0162
1310301745018,17.0678
1310301805018,17.0718
1310301865018,17.0035
1310301925018,17.0718
1310301985018,17.0817
1310302045018,17.0830
1310302105018,17.0769
1310302165018,17.1153
1310302225018,17.1003
1310302285018,17.0578
1310302345018,17.0560
1310302405018,17.0468
1310302465018,17.0670
1310302525018,17.0425
1310302585018,17.0739
1310302645018,17.0459
1310302705018,17.0901
1310302765018,17.1117
1310302825027,17.0758
1310302885027,17.0811
1310302945027,17.0886
1310303005027,17.1250
1310303065027,17.1068
1310303125027,17.1325
1310303185027,17.1137
1310303245027,17.0891
1310303305027,17.1677
1310303365027,17.1207
1310303425027,17.1105
1310303485027,17.1582
1310303545027,17.1307
1310303605027,17.1764
1310303665027,17.1542
1310303725027,17.1023
1310303785027,17.2123
1310303845027,17.2081
1310303905027,17.1896
1310303965027,17.1392
1310304025027,17.1724
1310304085027,17.1608
1310304145027,17.1793
1310304205027,17.1991
1310304265027,17.1584
1310304325027,17.1324
1310304385027,17.1677
1310304445027,17.1756
1310304505027,17.1569
1310304565027,17.1763
1310304625027,17.1624
1310304685027,17.1890
1310304745027,17.1432
1310304805027,17.2084
1310304865027,17.1983
1310304925027,17.2036
1310304985027,17.1815
1310305045027,17.1809
1310305105027,17.1568
1310305165027,17.1741
1310305225027,17.1959
1310305285027,17.1591
1310305345027,17.1504
1310305405027,17.1605
1310305465027,17.1651
1310305525027,17.1421
1310305585027,17.2045
1310305645027,17.2153
1310305705027,17.1790
1310305765027,17.1771
1310305825027,17.1142
1310305885027,17.1849
1310305945027,17.1662
1310306005027,17.1527
1310306065027,17.1724
1310306125027,17.1377
1310306185027,17.1027
1310306245027,17.0728
1310306305027,17.0996
1310306365027,17.1012
1310306425037,17.1024
1310306485037,17.1478
1310306545037,17.1274
1310306605037,17.1692
1310306665037,17.1344
1310306725037,17.1525
1310306785037,17.1393
1310306845037,17.1661
1310306905037,17.1378
1310306965037,17.1529
1310307025037,17.1584
1310307085037,17.1493
1310307145037,17.0910
1310307205037,17.1578
1310307265037,17.1217
1310307325037,17.1134
1310307385037,17.1362
1310307445037,17.1305
1310307505037,17.1442
1310307565037,17.1552
1310307625037,17.1387
1310307685037,17.1647
1310307745037,17.0943
1310307805037,17.0974
1310307865037,17.1465
1310307925037,17.1117
1310307985037,17.1028
1310308045037,17.1355
1310308105037,17.1481
1310308165037,17.1838
1310308225037,17.0988
1310308285037,17.1514
1310308345037,17.1175
1310308405037,17.1225
1310308465037,17.1083
1310308525037,17.0882
1310308585037,17.1268
1310308645037,17.1369
1310308705037,17.0826
1310308765037,17.1301
1310308825037,17.1187
1310308885037,17.1161
1310308945037,17.1704
1310309005037,17.1169
1310309065037,17.1601
1310309125037,17.1985
1310309185037,17.1581
1310309245037,17.1355
1310309305037,17.1995
1310309365037,17.2036
1310309425037,17.1399
1310309485037,17.1828
1310309545037,17.1277
1310309605037,17.1434
1310309665037,17.0900
1310309725037,17.1315
1310309785037,17.0705
1310309845037,17.1287
1310309905037,17.1645
1310309965037,17.1111
1310310025046,17.0963
1310310085046,17.0719
1310310145046,17.1199
1310310205047,17.1105
1310310265047,17.1356
1310310325046,17.0712
1310310385046,17.0963
1310310445046,17.0328
1310310505047,17.0270
1310310565047,17.0728
1310310625047,17.0642
1310310685047,17.0664
1310310745047,17.0930
1310310805047,17.0493
1310310865047,17.0338
1310310925047,17.0632
1310310985047,17.0480
1310311045046,17.1068
1310311105046,17.0848
1310311165046,17.0832
1310311225046,17.0645
1310311285046,17.0775
1310311345046,17.0501
1310311405046,17.0701
1310311465046,17.0747
1310311525047,17.0527
1310311585047,17.0683
1310311645047,17.1234
1310311705046,17.0637
1310311765046,17.1211
1310311825046,17.0841
1310311885047,17.1386
1310311945047,17.0836
1310312005047,17.0731
1310312065047,17.0910
1310312125047,17.0598
1310312185047,17.0535
1310312245047,17.0713
1310312305047,17.0662
1310312365046,17.0348
1310312425046,17.0680
1310312485046,17.0256
1310312545046,17.0506
1310312605046,17.0750
1310312665046,17.0877
1310312725046,17.0702
1310312785046,17.1193
1310312845046,17.0492
1310312905047,17.0925
1310312965047,17.0860
1310313025046,17.1375
1310313085046,17.1387
1310313145046,17.1063
1310313205047,17.0768
1310313265047,17.0881
1310313325047,17.1193
1310313385047,17.0875
1310313445047,17.1215
1310313505047,17.0905
1310313565047,17.1128
1310313625057,17.1227
1310313685057,17.1000
1310313745057,17.1093
1310313805057,17.0817
1310313865057,17.0842
1310313925057,17.1108
1310313985057,17.0661
1310314045057,17.0800
1310314105057,17.0706
1310314165057,17.1220
1310314225057,17.1289
1310314285057,17.0815
1310314345057,17.1129
1310314405057,17.0698
1310314465057,17.0721
1310314525057,17.0909
1310314585057,17.0789
1310314645057,17.0956
1310314705057,17.0710
1310314765057,17.1210
1310314825057,17.1187
1310314885057,17.0728
1310314945057,17.0763
1310315005057,17.1120
1310315065057,17.0643
1310315125057,17.0939
1310315185057,17.0876
1310315245057,17.1006
1310315305057,17.0996
1310315365057,17.1205
1310315425057,17.0481
1310315485057,17.1110
1310315545057,17.1130
1310315605057,17.0769
1310315665057,17.1352
1310315725057,17.1136
1310315785057,17.1612
1310315845057,17.1664
1310315905057,17.1308
1310315965057,17.1150
1310316025057,17.1261
1310316085057,17.1587
1310316145057,17.1034
1310316205057,17.0794
1310316265057,17.0679
1310316325057,17.0111
1310316385057,17.0613
1310316445057,17.0849
1310316505057,17.0558
1310316565057,17.0840
1310316625057,17.1061
1310316685057,17.0820
1310316745057,17.1492
1310316805057,17.1070
1310316865057,17.0649
1310316925057,17.1297
1310316985057,17.0916
1310317045057,17.0990
1310317105057,17.0635
1310317165057,17.0484
1310317225067,17.1295
1310317285067,17.1622
1310317345067,17.1725
1310317405067,17.1717
1310317465067,17.1089
1310317525067,17.0869
1310317585067,17.1079
1310317645067,17.0967
1310317705067,17.1240
1310317765067,17.1006
1310317825067,17.1136
1310317885067,17.1572
1310317945067,17.0509
1310318005067,17.1062
1310318065067,17.0811
1310318125067,17.0960
1310318185067,17.0660
1310318245067,17.0767
1310318305067,17.0871
1310318365067,17.0941
1310318425067,17.0503
1310318485067,17.0629
1310318545067,17.0791
1310318605067,17.0786
1310318665067,17.0917
1310318725067,17.0788
1310318785067,17.0403
1310318845067,17.0468
1310318905067,17.0299
1310318965067,17.0095
1310319025067,17.0660
1310319085067,17.0467
1310319145067,17.0516
1310319205067,17.0511
1310319265067,17.0681
1310319325067,17.1274
1310319385067,17.0639
1310319445067,17.0860
1310319505067,17.0871
1310319565067,17.0469
1310319625067,17.1141
1310319685067,17.0669
1310319745067,17.0729
1310319805067,17.0233
1310319865067,17.0297
1310319925067,17.0203
1310319985067,17.0585
1310320045067,17.0605
1310320105067,17.0380
1310320165067,17.0468
1310320225067,17.0970
1310320285067,17.0916
1310320345067,17.0600
1310320405067,17.0728
1310320465067,17.0417
1310320525067,17.0626
1310320585067,17.0791
1310320645067,17.0357
1310320705067,17.0253
1310320765067,17.0512
1310320825078,17.0984
1310320885078,17.0747
1310320945078,17.0211
1310321005078,17.0910
1310321065078,17.0856
1310321125078,17.0767
1310321185078,17.0896
1310321245078,17.0647
1310321305078,17.1344
1310321365078,17.0804
1310321425078,17.0766
1310321485078,17.1132
1310321545078,17.0364
1310321605078,17.0931
1310321665078,17.1272
1310321725078,17.1199
1310321785078,17.1154
1310321845078,17.0752
1310321905078,17.1053
1310321965078,17.1223
1310322025078,17.1505
1310322085078,17.1098
1310322145078,17.0729
1310322205078,17.0738
1310322265078,17.1198
1310322325078,17.0675
1310322385078,17.0911
1310322445078,17.0706